View from above orbital plane
|
View from above satellite
|
Ground track
|
The orbit data is extracted from the following two-line orbital elements,
1 43156U 18008B 21024.90327318 .00000955 00000-0 59714-4 0 9997
2 43156 97.4267 93.9158 0016244 102.7661 343.8579 15.11652653166323
Epoch (UTC): | 24 January 2021 21:40:42 |
Eccentricity: | 0.0016244 |
inclination: | 97.4267° |
perigee height: | 520 km |
apogee height: | 542 km |
right ascension of ascending node: | 93.9158° |
argument of perigee: | 102.7661° |
revolutions per day: | 15.11652653 |
mean anomaly at epoch: | 343.8579° |
orbit number at epoch: | 16632 |
The dashed part of the orbit path shows where the satellite is in the earth's shadow,
|
|